Year,Month,Day,Hour,Minute,Value (Times are PST for temperature in C)
2010,10,15,00,00,9.10
2010,10,15,00,01,9.10
2010,10,15,00,02,9.10
2010,10,15,00,03,9.10
2010,10,15,00,04,9.10
2010,10,15,00,05,9.10
2010,10,15,00,06,9.00
2010,10,15,00,07,9.00
2010,10,15,00,08,9.00
2010,10,15,00,09,9.00
2010,10,15,00,10,9.00
2010,10,15,00,11,9.00
2010,10,15,00,12,9.00
2010,10,15,00,13,9.00
2010,10,15,00,14,9.00
2010,10,15,00,15,9.00
2010,10,15,00,16,9.10
2010,10,15,00,17,9.10
2010,10,15,00,18,9.10
2010,10,15,00,19,9.10
2010,10,15,00,20,9.10
2010,10,15,00,21,9.10
2010,10,15,00,22,9.10
2010,10,15,00,23,9.10
2010,10,15,00,24,9.10
2010,10,15,00,25,9.00
2010,10,15,00,26,9.00
2010,10,15,00,27,9.00
2010,10,15,00,28,8.90
2010,10,15,00,29,8.90
2010,10,15,00,30,8.90
2010,10,15,00,31,8.80
2010,10,15,00,32,8.80
2010,10,15,00,33,8.80
2010,10,15,00,34,8.80
2010,10,15,00,35,8.80
2010,10,15,00,36,8.80
2010,10,15,00,37,8.70
2010,10,15,00,38,8.70
2010,10,15,00,39,8.70
2010,10,15,00,40,8.70
2010,10,15,00,41,8.70
2010,10,15,00,42,8.70
2010,10,15,00,43,8.70
2010,10,15,00,44,8.60
2010,10,15,00,45,8.60
2010,10,15,00,46,8.60
2010,10,15,00,47,8.50
2010,10,15,00,48,8.40
2010,10,15,00,49,8.40
2010,10,15,00,50,8.30
2010,10,15,00,51,8.30
2010,10,15,00,52,8.20
2010,10,15,00,53,8.10
2010,10,15,00,54,8.10
2010,10,15,00,55,8.00
2010,10,15,00,56,7.90
2010,10,15,00,57,7.90
2010,10,15,00,58,7.80
2010,10,15,00,59,7.80
2010,10,15,01,00,7.80
2010,10,15,01,01,7.70
2010,10,15,01,02,7.70
2010,10,15,01,03,7.60
2010,10,15,01,04,7.60
2010,10,15,01,05,7.50
2010,10,15,01,06,7.50
2010,10,15,01,07,7.40
2010,10,15,01,08,7.30
2010,10,15,01,09,7.20
2010,10,15,01,10,7.20
2010,10,15,01,11,7.10
2010,10,15,01,12,7.10
2010,10,15,01,13,7.10
2010,10,15,01,14,7.00
2010,10,15,01,15,7.00
2010,10,15,01,16,6.90
2010,10,15,01,17,6.90
2010,10,15,01,18,6.80
2010,10,15,01,19,6.80
2010,10,15,01,20,6.80
2010,10,15,01,21,6.70
2010,10,15,01,22,6.70
2010,10,15,01,23,6.60
2010,10,15,01,24,6.60
2010,10,15,01,25,6.50
2010,10,15,01,26,6.50
2010,10,15,01,27,6.40
2010,10,15,01,28,6.40
2010,10,15,01,29,6.30
2010,10,15,01,30,6.30
2010,10,15,01,31,6.20
2010,10,15,01,32,6.20
2010,10,15,01,33,6.10
2010,10,15,01,34,6.10
2010,10,15,01,35,6.00
2010,10,15,01,36,6.00
2010,10,15,01,37,5.90
2010,10,15,01,38,5.90
2010,10,15,01,39,5.90
2010,10,15,01,40,5.80
2010,10,15,01,41,5.80
2010,10,15,01,42,5.80
2010,10,15,01,43,5.70
2010,10,15,01,44,5.70
2010,10,15,01,45,5.70
2010,10,15,01,46,5.70
2010,10,15,01,47,5.70
2010,10,15,01,48,5.60
2010,10,15,01,49,5.60
2010,10,15,01,50,5.60
2010,10,15,01,51,5.50
2010,10,15,01,52,5.50
2010,10,15,01,53,5.50
2010,10,15,01,54,5.50
2010,10,15,01,55,5.40
2010,10,15,01,56,5.40
2010,10,15,01,57,5.40
2010,10,15,01,58,5.40
2010,10,15,01,59,5.30
2010,10,15,02,00,5.40
2010,10,15,02,01,5.30
2010,10,15,02,02,5.30
2010,10,15,02,03,5.30
2010,10,15,02,04,5.30
2010,10,15,02,05,5.20
2010,10,15,02,06,5.20
2010,10,15,02,07,5.10
2010,10,15,02,08,5.10
2010,10,15,02,09,5.10
2010,10,15,02,10,5.10
2010,10,15,02,11,5.10
2010,10,15,02,12,5.00
2010,10,15,02,13,5.00
2010,10,15,02,14,4.90
2010,10,15,02,15,4.90
2010,10,15,02,16,4.90
2010,10,15,02,17,4.90
2010,10,15,02,18,4.90
2010,10,15,02,19,4.90
2010,10,15,02,20,4.90
2010,10,15,02,21,4.90
2010,10,15,02,22,4.90
2010,10,15,02,23,4.90
2010,10,15,02,24,4.90
2010,10,15,02,25,4.80
2010,10,15,02,26,4.80
2010,10,15,02,27,4.80
2010,10,15,02,28,4.70
2010,10,15,02,29,4.70
2010,10,15,02,30,4.70
2010,10,15,02,31,4.70
2010,10,15,02,32,4.70
2010,10,15,02,33,4.70
2010,10,15,02,34,4.70
2010,10,15,02,35,4.70
2010,10,15,02,36,4.70
2010,10,15,02,37,4.70
2010,10,15,02,38,4.70
2010,10,15,02,39,4.70
2010,10,15,02,40,4.70
2010,10,15,02,41,4.70
2010,10,15,02,42,4.70
2010,10,15,02,43,4.70
2010,10,15,02,44,4.70
2010,10,15,02,45,4.60
2010,10,15,02,46,4.60
2010,10,15,02,47,4.60
2010,10,15,02,48,4.60
2010,10,15,02,49,4.50
2010,10,15,02,50,4.50
2010,10,15,02,51,4.40
2010,10,15,02,52,4.40
2010,10,15,02,53,4.40
2010,10,15,02,54,4.30
2010,10,15,02,55,4.30
2010,10,15,02,56,4.30
2010,10,15,02,57,4.30
2010,10,15,02,58,4.30
2010,10,15,02,59,4.30
2010,10,15,03,00,4.30
2010,10,15,03,01,4.20
2010,10,15,03,02,4.20
2010,10,15,03,03,4.10
2010,10,15,03,04,4.10
2010,10,15,03,05,4.00
2010,10,15,03,06,4.00
2010,10,15,03,07,4.00
2010,10,15,03,08,3.90
2010,10,15,03,09,3.90
2010,10,15,03,10,3.90
2010,10,15,03,11,3.90
2010,10,15,03,12,3.90
2010,10,15,03,13,3.90
2010,10,15,03,14,3.90
2010,10,15,03,15,3.90
2010,10,15,03,16,3.90
2010,10,15,03,17,3.90
2010,10,15,03,18,3.90
2010,10,15,03,19,3.90
2010,10,15,03,20,3.90
2010,10,15,03,21,4.00
2010,10,15,03,22,3.90
2010,10,15,03,23,3.90
2010,10,15,03,24,3.90
2010,10,15,03,25,3.90
2010,10,15,03,26,3.80
2010,10,15,03,27,3.80
2010,10,15,03,28,3.80
2010,10,15,03,29,3.80
2010,10,15,03,30,3.90
2010,10,15,03,31,3.90
2010,10,15,03,32,4.00
2010,10,15,03,33,4.00
2010,10,15,03,34,4.10
2010,10,15,03,35,4.10
2010,10,15,03,36,4.10
2010,10,15,03,37,4.10
2010,10,15,03,38,4.10
2010,10,15,03,39,4.10
2010,10,15,03,40,4.00
2010,10,15,03,41,4.00
2010,10,15,03,42,4.00
2010,10,15,03,43,4.00
2010,10,15,03,44,4.00
2010,10,15,03,45,3.90
2010,10,15,03,46,3.90
2010,10,15,03,47,3.90
2010,10,15,03,48,3.90
2010,10,15,03,49,4.00
2010,10,15,03,50,4.00
2010,10,15,03,51,4.00
2010,10,15,03,52,4.00
2010,10,15,03,53,4.00
2010,10,15,03,54,4.00
2010,10,15,03,55,3.90
2010,10,15,03,56,3.90
2010,10,15,03,57,3.90
2010,10,15,03,58,3.90
2010,10,15,03,59,3.90
2010,10,15,04,00,3.90
2010,10,15,04,01,3.80
2010,10,15,04,02,3.80
2010,10,15,04,03,3.80
2010,10,15,04,04,3.80
2010,10,15,04,05,3.90
2010,10,15,04,06,3.90
2010,10,15,04,07,3.90
2010,10,15,04,08,3.80
2010,10,15,04,09,3.80
2010,10,15,04,10,3.80
2010,10,15,04,11,3.90
2010,10,15,04,12,3.80
2010,10,15,04,13,3.90
2010,10,15,04,14,3.80
2010,10,15,04,15,3.80
2010,10,15,04,16,3.80
2010,10,15,04,17,3.70
2010,10,15,04,18,3.70
2010,10,15,04,19,3.70
2010,10,15,04,20,3.60
2010,10,15,04,21,3.60
2010,10,15,04,22,3.60
2010,10,15,04,23,3.60
2010,10,15,04,24,3.60
2010,10,15,04,25,3.50
2010,10,15,04,26,3.50
2010,10,15,04,27,3.50
2010,10,15,04,28,3.50
2010,10,15,04,29,3.50
2010,10,15,04,30,3.50
2010,10,15,04,31,3.50
2010,10,15,04,32,3.50
2010,10,15,04,33,3.40
2010,10,15,04,34,3.40
2010,10,15,04,35,3.40
2010,10,15,04,36,3.40
2010,10,15,04,37,3.40
2010,10,15,04,38,3.40
2010,10,15,04,39,3.40
2010,10,15,04,40,3.40
2010,10,15,04,41,3.50
2010,10,15,04,42,3.50
2010,10,15,04,43,3.50
2010,10,15,04,44,3.40
2010,10,15,04,45,3.40
2010,10,15,04,46,3.40
2010,10,15,04,47,3.40
2010,10,15,04,48,3.40
2010,10,15,04,49,3.40
2010,10,15,04,50,3.40
2010,10,15,04,51,3.40
2010,10,15,04,52,3.40
2010,10,15,04,53,3.40
2010,10,15,04,54,3.30
2010,10,15,04,55,3.30
2010,10,15,04,56,3.30
2010,10,15,04,57,3.30
2010,10,15,04,58,3.30
2010,10,15,04,59,3.30
2010,10,15,05,00,3.30
2010,10,15,05,01,3.20
2010,10,15,05,02,3.20
2010,10,15,05,03,3.20
2010,10,15,05,04,3.20
2010,10,15,05,05,3.20
2010,10,15,05,06,3.20
2010,10,15,05,07,3.20
2010,10,15,05,08,3.20
2010,10,15,05,09,3.20
2010,10,15,05,10,3.20
2010,10,15,05,11,3.20
2010,10,15,05,12,3.20
2010,10,15,05,13,3.20
2010,10,15,05,14,3.20
2010,10,15,05,15,3.10
2010,10,15,05,16,3.10
2010,10,15,05,17,3.10
2010,10,15,05,18,3.00
2010,10,15,05,19,2.90
2010,10,15,05,20,2.90
2010,10,15,05,21,2.90
2010,10,15,05,22,2.90
2010,10,15,05,23,2.80
2010,10,15,05,24,2.80
2010,10,15,05,25,2.80
2010,10,15,05,26,2.80
2010,10,15,05,27,2.80
2010,10,15,05,28,2.80
2010,10,15,05,29,2.80
2010,10,15,05,30,2.90
2010,10,15,05,31,2.90
2010,10,15,05,32,2.80
2010,10,15,05,33,2.80
2010,10,15,05,34,2.80
2010,10,15,05,35,2.80
2010,10,15,05,36,2.80
2010,10,15,05,37,2.90
2010,10,15,05,38,2.90
2010,10,15,05,39,2.80
2010,10,15,05,40,2.90
2010,10,15,05,41,2.90
2010,10,15,05,42,2.90
2010,10,15,05,43,2.90
2010,10,15,05,44,2.90
2010,10,15,05,45,2.90
2010,10,15,05,46,3.00
2010,10,15,05,47,3.00
2010,10,15,05,48,3.00
2010,10,15,05,49,3.00
2010,10,15,05,50,3.00
2010,10,15,05,51,3.10
2010,10,15,05,52,3.10
2010,10,15,05,53,3.00
2010,10,15,05,54,3.00
2010,10,15,05,55,2.90
2010,10,15,05,56,2.90
2010,10,15,05,57,2.90
2010,10,15,05,58,2.90
2010,10,15,05,59,2.90
2010,10,15,06,00,2.90
2010,10,15,06,01,2.90
2010,10,15,06,02,2.90
2010,10,15,06,03,2.90
2010,10,15,06,04,2.90
2010,10,15,06,05,2.90
2010,10,15,06,06,2.80
2010,10,15,06,07,2.80
2010,10,15,06,08,2.80
2010,10,15,06,09,2.80
2010,10,15,06,10,2.80
2010,10,15,06,11,2.80
2010,10,15,06,12,2.80
2010,10,15,06,13,2.80
2010,10,15,06,14,2.80
2010,10,15,06,15,2.80
2010,10,15,06,16,2.80
2010,10,15,06,17,2.80
2010,10,15,06,18,2.80
2010,10,15,06,19,2.80
2010,10,15,06,20,2.80
2010,10,15,06,21,2.90
2010,10,15,06,22,2.90
2010,10,15,06,23,2.90
2010,10,15,06,24,3.00
2010,10,15,06,25,3.00
2010,10,15,06,26,3.00
2010,10,15,06,27,3.00
2010,10,15,06,28,3.00
2010,10,15,06,29,2.90
2010,10,15,06,30,2.90
2010,10,15,06,31,2.90
2010,10,15,06,32,2.80
2010,10,15,06,33,2.80
2010,10,15,06,34,2.80
2010,10,15,06,35,2.80
2010,10,15,06,36,2.80
2010,10,15,06,37,2.70
2010,10,15,06,38,2.70
2010,10,15,06,39,2.70
2010,10,15,06,40,2.70
2010,10,15,06,41,2.70
2010,10,15,06,42,2.70
2010,10,15,06,43,2.70
2010,10,15,06,44,2.70
2010,10,15,06,45,2.70
2010,10,15,06,46,2.70
2010,10,15,06,47,2.70
2010,10,15,06,48,2.70
2010,10,15,06,49,2.70
2010,10,15,06,50,2.70
2010,10,15,06,51,2.70
2010,10,15,06,52,2.70
2010,10,15,06,53,2.70
2010,10,15,06,54,2.70
2010,10,15,06,55,2.70
2010,10,15,06,56,2.70
2010,10,15,06,57,2.70
2010,10,15,06,58,2.70
2010,10,15,06,59,2.70
2010,10,15,07,00,2.70
2010,10,15,07,01,2.70
2010,10,15,07,02,2.70
2010,10,15,07,03,2.70
2010,10,15,07,04,2.60
2010,10,15,07,05,2.60
2010,10,15,07,06,2.60
2010,10,15,07,07,2.60
2010,10,15,07,08,2.60
2010,10,15,07,09,2.60
2010,10,15,07,10,2.60
2010,10,15,07,11,2.50
2010,10,15,07,12,2.50
2010,10,15,07,13,2.50
2010,10,15,07,14,2.60
2010,10,15,07,15,2.60
2010,10,15,07,16,2.70
2010,10,15,07,17,2.70
2010,10,15,07,18,2.70
2010,10,15,07,19,2.70
2010,10,15,07,20,2.60
2010,10,15,07,21,2.60
2010,10,15,07,22,2.60
2010,10,15,07,23,2.60
2010,10,15,07,24,2.50
2010,10,15,07,25,2.50
2010,10,15,07,26,2.50
2010,10,15,07,27,2.40
2010,10,15,07,28,2.40
2010,10,15,07,29,2.40
2010,10,15,07,30,2.40
2010,10,15,07,31,2.40
2010,10,15,07,32,2.40
2010,10,15,07,33,2.40
2010,10,15,07,34,2.40
2010,10,15,07,35,2.40
2010,10,15,07,36,2.30
2010,10,15,07,37,2.30
2010,10,15,07,38,2.30
2010,10,15,07,39,2.30
2010,10,15,07,40,2.30
2010,10,15,07,41,2.30
2010,10,15,07,42,2.30
2010,10,15,07,43,2.30
2010,10,15,07,44,2.30
2010,10,15,07,45,2.30
2010,10,15,07,46,2.30
2010,10,15,07,47,2.30
2010,10,15,07,48,2.30
2010,10,15,07,49,2.30
2010,10,15,07,50,2.30
2010,10,15,07,51,2.30
2010,10,15,07,52,2.30
2010,10,15,07,53,2.30
2010,10,15,07,54,2.30
2010,10,15,07,55,2.30
2010,10,15,07,56,2.30
2010,10,15,07,57,2.30
2010,10,15,07,58,2.30
2010,10,15,07,59,2.30
2010,10,15,08,00,2.30
2010,10,15,08,01,2.30
2010,10,15,08,02,2.40
2010,10,15,08,03,2.40
2010,10,15,08,04,2.40
2010,10,15,08,05,2.40
2010,10,15,08,06,2.50
2010,10,15,08,07,2.50
2010,10,15,08,08,2.60
2010,10,15,08,09,2.60
2010,10,15,08,10,2.70
2010,10,15,08,11,2.70
2010,10,15,08,12,2.80
2010,10,15,08,13,2.90
2010,10,15,08,14,3.00
2010,10,15,08,15,3.00
2010,10,15,08,16,3.10
2010,10,15,08,17,3.10
2010,10,15,08,18,3.00
2010,10,15,08,19,2.90
2010,10,15,08,20,2.80
2010,10,15,08,21,2.80
2010,10,15,08,22,2.80
2010,10,15,08,23,2.80
2010,10,15,08,24,2.80
2010,10,15,08,25,2.90
2010,10,15,08,26,2.90
2010,10,15,08,27,3.00
2010,10,15,08,28,3.00
2010,10,15,08,29,3.10
2010,10,15,08,30,3.20
2010,10,15,08,31,3.30
2010,10,15,08,32,3.40
2010,10,15,08,33,3.40
2010,10,15,08,34,3.50
2010,10,15,08,35,3.60
2010,10,15,08,36,3.60
2010,10,15,08,37,3.70
2010,10,15,08,38,3.70
2010,10,15,08,39,3.70
2010,10,15,08,40,3.80
2010,10,15,08,41,3.80
2010,10,15,08,42,3.80
2010,10,15,08,43,3.80
2010,10,15,08,44,3.90
2010,10,15,08,45,4.00
2010,10,15,08,46,4.00
2010,10,15,08,47,4.00
2010,10,15,08,48,4.10
2010,10,15,08,49,4.10
2010,10,15,08,50,4.20
2010,10,15,08,51,4.20
2010,10,15,08,52,4.30
2010,10,15,08,53,4.40
2010,10,15,08,54,4.50
2010,10,15,08,55,4.60
2010,10,15,08,56,4.70
2010,10,15,08,57,4.80
2010,10,15,08,58,4.90
2010,10,15,08,59,5.00
2010,10,15,09,00,5.10
2010,10,15,09,01,5.20
2010,10,15,09,02,5.20
2010,10,15,09,03,5.30
2010,10,15,09,04,5.40
2010,10,15,09,05,5.50
2010,10,15,09,06,5.60
2010,10,15,09,07,5.60
2010,10,15,09,08,5.60
2010,10,15,09,09,5.60
2010,10,15,09,10,5.50
2010,10,15,09,11,5.60
2010,10,15,09,12,5.60
2010,10,15,09,13,5.60
2010,10,15,09,14,5.70
2010,10,15,09,15,5.70
2010,10,15,09,16,5.80
2010,10,15,09,17,5.90
2010,10,15,09,18,6.10
2010,10,15,09,19,6.20
2010,10,15,09,20,6.20
2010,10,15,09,21,6.30
2010,10,15,09,22,6.40
2010,10,15,09,23,6.50
2010,10,15,09,24,6.60
2010,10,15,09,25,6.60
2010,10,15,09,26,6.60
2010,10,15,09,27,6.60
2010,10,15,09,28,6.60
2010,10,15,09,29,6.70
2010,10,15,09,30,6.70
2010,10,15,09,31,6.70
2010,10,15,09,32,6.70
2010,10,15,09,33,6.80
2010,10,15,09,34,6.80
2010,10,15,09,35,6.80
2010,10,15,09,36,6.90
2010,10,15,09,37,7.00
2010,10,15,09,38,7.10
2010,10,15,09,39,7.20
2010,10,15,09,40,7.30
2010,10,15,09,41,7.40
2010,10,15,09,42,7.60
2010,10,15,09,43,7.70
2010,10,15,09,44,7.90
2010,10,15,09,45,8.00
2010,10,15,09,46,8.20
2010,10,15,09,47,8.30
2010,10,15,09,48,8.40
2010,10,15,09,49,8.60
2010,10,15,09,50,8.70
2010,10,15,09,51,8.90
2010,10,15,09,52,9.00
2010,10,15,09,53,9.10
2010,10,15,09,54,9.20
2010,10,15,09,55,9.30
2010,10,15,09,56,9.30
2010,10,15,09,57,9.40
2010,10,15,09,58,9.40
2010,10,15,09,59,9.40
2010,10,15,10,00,9.40
2010,10,15,10,01,9.40
2010,10,15,10,02,9.40
2010,10,15,10,03,9.40
2010,10,15,10,04,9.50
2010,10,15,10,05,9.50
2010,10,15,10,06,9.60
2010,10,15,10,07,9.60
2010,10,15,10,08,9.70
2010,10,15,10,09,9.70
2010,10,15,10,10,9.70
2010,10,15,10,11,9.80
2010,10,15,10,12,9.90
2010,10,15,10,13,10.00
2010,10,15,10,14,10.10
2010,10,15,10,15,10.20
2010,10,15,10,16,10.30
2010,10,15,10,17,10.30
2010,10,15,10,18,10.40
2010,10,15,10,19,10.50
2010,10,15,10,20,10.50
2010,10,15,10,21,10.50
2010,10,15,10,22,10.60
2010,10,15,10,23,10.60
2010,10,15,10,24,10.60
2010,10,15,10,25,10.60
2010,10,15,10,26,10.70
2010,10,15,10,27,10.70
2010,10,15,10,28,10.80
2010,10,15,10,29,10.80
2010,10,15,10,30,10.90
2010,10,15,10,31,10.90
2010,10,15,10,32,11.00
2010,10,15,10,33,11.00
2010,10,15,10,34,11.10
2010,10,15,10,35,11.10
2010,10,15,10,36,11.10
2010,10,15,10,37,11.10
2010,10,15,10,38,11.10
2010,10,15,10,39,11.10
2010,10,15,10,40,11.10
2010,10,15,10,41,11.20
2010,10,15,10,42,11.20
2010,10,15,10,43,11.20
2010,10,15,10,44,11.30
2010,10,15,10,45,11.30
2010,10,15,10,46,11.30
2010,10,15,10,47,11.20
2010,10,15,10,48,11.20
2010,10,15,10,49,11.10
2010,10,15,10,50,11.10
2010,10,15,10,51,11.10
2010,10,15,10,52,11.10
2010,10,15,10,53,11.10
2010,10,15,10,54,11.10
2010,10,15,10,55,11.10
2010,10,15,10,56,11.10
2010,10,15,10,57,11.10
2010,10,15,10,58,11.10
2010,10,15,10,59,11.20
2010,10,15,11,00,11.20
2010,10,15,11,01,11.30
2010,10,15,11,02,11.30
2010,10,15,11,03,11.40
2010,10,15,11,04,11.40
2010,10,15,11,05,11.40
2010,10,15,11,06,11.50
2010,10,15,11,07,11.50
2010,10,15,11,08,11.60
2010,10,15,11,09,11.60
2010,10,15,11,10,11.60
2010,10,15,11,11,11.60
2010,10,15,11,12,11.60
2010,10,15,11,13,11.70
2010,10,15,11,14,11.70
2010,10,15,11,15,11.70
2010,10,15,11,16,11.70
2010,10,15,11,17,11.70
2010,10,15,11,18,11.70
2010,10,15,11,19,11.70
2010,10,15,11,20,11.80
2010,10,15,11,21,11.80
2010,10,15,11,22,11.80
2010,10,15,11,23,11.80
2010,10,15,11,24,11.90
2010,10,15,11,25,12.00
2010,10,15,11,26,12.00
2010,10,15,11,27,12.00
2010,10,15,11,28,12.00
2010,10,15,11,29,12.10
2010,10,15,11,30,12.00
2010,10,15,11,31,12.00
2010,10,15,11,32,12.00
2010,10,15,11,33,11.90
2010,10,15,11,34,11.90
2010,10,15,11,35,11.90
2010,10,15,11,36,12.00
2010,10,15,11,37,12.10
2010,10,15,11,38,12.00
2010,10,15,11,39,12.00
2010,10,15,11,40,12.00
2010,10,15,11,41,12.00
2010,10,15,11,42,12.00
2010,10,15,11,43,12.10
2010,10,15,11,44,12.20
2010,10,15,11,45,12.20
2010,10,15,11,46,12.20
2010,10,15,11,47,12.20
2010,10,15,11,48,12.30
2010,10,15,11,49,12.30
2010,10,15,11,50,12.20
2010,10,15,11,51,12.20
2010,10,15,11,52,12.30
2010,10,15,11,53,12.30
2010,10,15,11,54,12.40
2010,10,15,11,55,12.40
2010,10,15,11,56,12.40
2010,10,15,11,57,12.50
2010,10,15,11,58,12.50
2010,10,15,11,59,12.40
2010,10,15,12,00,12.40
2010,10,15,12,01,12.30
2010,10,15,12,02,12.30
2010,10,15,12,03,12.30
2010,10,15,12,04,12.30
2010,10,15,12,05,12.30
2010,10,15,12,06,12.20
2010,10,15,12,07,12.20
2010,10,15,12,08,12.20
2010,10,15,12,09,12.20
2010,10,15,12,10,12.30
2010,10,15,12,11,12.30
2010,10,15,12,12,12.40
2010,10,15,12,13,12.40
2010,10,15,12,14,12.40
2010,10,15,12,15,12.50
2010,10,15,12,16,12.50
2010,10,15,12,17,12.60
2010,10,15,12,18,12.70
2010,10,15,12,19,12.70
2010,10,15,12,20,12.80
2010,10,15,12,21,12.80
2010,10,15,12,22,12.80
2010,10,15,12,23,12.80
2010,10,15,12,24,12.90
2010,10,15,12,25,12.90
2010,10,15,12,26,12.90
2010,10,15,12,27,12.90
2010,10,15,12,28,12.90
2010,10,15,12,29,12.90
2010,10,15,12,30,13.00
2010,10,15,12,31,13.00
2010,10,15,12,32,13.00
2010,10,15,12,33,13.00
2010,10,15,12,34,13.00
2010,10,15,12,35,13.10
2010,10,15,12,36,13.00
2010,10,15,12,37,13.00
2010,10,15,12,38,12.90
2010,10,15,12,39,12.90
2010,10,15,12,40,12.80
2010,10,15,12,41,12.80
2010,10,15,12,42,12.80
2010,10,15,12,43,12.80
2010,10,15,12,44,12.80
2010,10,15,12,45,12.80
2010,10,15,12,46,12.80
2010,10,15,12,47,12.80
2010,10,15,12,48,12.90
2010,10,15,12,49,12.90
2010,10,15,12,50,12.90
2010,10,15,12,51,12.90
2010,10,15,12,52,12.90
2010,10,15,12,53,12.90
2010,10,15,12,54,13.00
2010,10,15,12,55,13.00
2010,10,15,12,56,13.00
2010,10,15,12,57,13.00
2010,10,15,12,58,12.80
2010,10,15,12,59,12.70
2010,10,15,13,00,12.70
2010,10,15,13,01,12.70
2010,10,15,13,02,12.70
2010,10,15,13,03,12.80
2010,10,15,13,04,12.80
2010,10,15,13,05,12.80
2010,10,15,13,06,12.80
2010,10,15,13,07,12.80
2010,10,15,13,08,12.70
2010,10,15,13,09,12.70
2010,10,15,13,10,12.70
2010,10,15,13,11,12.60
2010,10,15,13,12,12.60
2010,10,15,13,13,12.60
2010,10,15,13,14,12.60
2010,10,15,13,15,12.60
2010,10,15,13,16,12.70
2010,10,15,13,17,12.80
2010,10,15,13,18,12.80
2010,10,15,13,19,12.80
2010,10,15,13,20,12.80
2010,10,15,13,21,12.80
2010,10,15,13,22,12.70
2010,10,15,13,23,12.60
2010,10,15,13,24,12.60
2010,10,15,13,25,12.70
2010,10,15,13,26,12.70
2010,10,15,13,27,12.60
2010,10,15,13,28,12.60
2010,10,15,13,29,12.70
2010,10,15,13,30,12.60
2010,10,15,13,31,12.60
2010,10,15,13,32,12.60
2010,10,15,13,33,12.60
2010,10,15,13,34,12.50
2010,10,15,13,35,12.40
2010,10,15,13,36,12.40
2010,10,15,13,37,12.50
2010,10,15,13,38,12.60
2010,10,15,13,39,12.60
2010,10,15,13,40,12.60
2010,10,15,13,41,12.60
2010,10,15,13,42,12.60
2010,10,15,13,43,12.60
2010,10,15,13,44,12.60
2010,10,15,13,45,12.60
2010,10,15,13,46,12.60
2010,10,15,13,47,12.50
2010,10,15,13,48,12.40
2010,10,15,13,49,12.40
2010,10,15,13,50,12.40
2010,10,15,13,51,12.50
2010,10,15,13,52,12.50
2010,10,15,13,53,12.60
2010,10,15,13,54,12.60
2010,10,15,13,55,12.50
2010,10,15,13,56,12.40
2010,10,15,13,57,12.40
2010,10,15,13,58,12.40
2010,10,15,13,59,12.40
2010,10,15,14,00,12.40
2010,10,15,14,01,12.40
2010,10,15,14,02,12.30
2010,10,15,14,03,12.30
2010,10,15,14,04,12.20
2010,10,15,14,05,12.20
2010,10,15,14,06,12.30
2010,10,15,14,07,12.40
2010,10,15,14,08,12.50
2010,10,15,14,09,12.50
2010,10,15,14,10,12.60
2010,10,15,14,11,12.60
2010,10,15,14,12,12.70
2010,10,15,14,13,12.70
2010,10,15,14,14,12.80
2010,10,15,14,15,12.80
2010,10,15,14,16,12.90
2010,10,15,14,17,12.80
2010,10,15,14,18,12.70
2010,10,15,14,19,12.70
2010,10,15,14,20,12.60
2010,10,15,14,21,12.70
2010,10,15,14,22,12.70
2010,10,15,14,23,12.70
2010,10,15,14,24,12.60
2010,10,15,14,25,12.60
2010,10,15,14,26,12.60
2010,10,15,14,27,12.60
2010,10,15,14,28,12.50
2010,10,15,14,29,12.50
2010,10,15,14,30,12.40
2010,10,15,14,31,12.50
2010,10,15,14,32,12.50
2010,10,15,14,33,12.60
2010,10,15,14,34,12.60
2010,10,15,14,35,12.70
2010,10,15,14,36,12.80
2010,10,15,14,37,12.80
2010,10,15,14,38,12.70
2010,10,15,14,39,12.50
2010,10,15,14,40,12.50
2010,10,15,14,41,12.40
2010,10,15,14,42,12.40
2010,10,15,14,43,12.30
2010,10,15,14,44,12.20
2010,10,15,14,45,12.20
2010,10,15,14,46,12.20
2010,10,15,14,47,12.10
2010,10,15,14,48,12.10
2010,10,15,14,49,12.20
2010,10,15,14,50,12.30
2010,10,15,14,51,12.40
2010,10,15,14,52,12.50
2010,10,15,14,53,12.40
2010,10,15,14,54,12.50
2010,10,15,14,55,12.50
2010,10,15,14,56,12.50
2010,10,15,14,57,12.50
2010,10,15,14,58,12.50
2010,10,15,14,59,12.50
2010,10,15,15,00,12.60
2010,10,15,15,01,12.70
2010,10,15,15,02,12.70
2010,10,15,15,03,12.80
2010,10,15,15,04,12.80
2010,10,15,15,05,12.80
2010,10,15,15,06,12.80
2010,10,15,15,07,12.80
2010,10,15,15,08,12.80
2010,10,15,15,09,12.70
2010,10,15,15,10,12.70
2010,10,15,15,11,12.70
2010,10,15,15,12,12.60
2010,10,15,15,13,12.60
2010,10,15,15,14,12.60
2010,10,15,15,15,12.50
2010,10,15,15,16,12.50
2010,10,15,15,17,12.60
2010,10,15,15,18,12.50
2010,10,15,15,19,12.60
2010,10,15,15,20,12.60
2010,10,15,15,21,12.50
2010,10,15,15,22,12.50
2010,10,15,15,23,12.50
2010,10,15,15,24,12.50
2010,10,15,15,25,12.50
2010,10,15,15,26,12.40
2010,10,15,15,27,12.40
2010,10,15,15,28,12.40
2010,10,15,15,29,12.40
2010,10,15,15,30,12.30
2010,10,15,15,31,12.30
2010,10,15,15,32,12.20
2010,10,15,15,33,12.10
2010,10,15,15,34,12.10
2010,10,15,15,35,12.10
2010,10,15,15,36,12.10
2010,10,15,15,37,12.10
2010,10,15,15,38,12.20
2010,10,15,15,39,12.30
2010,10,15,15,40,12.40
2010,10,15,15,41,12.40
2010,10,15,15,42,12.30
2010,10,15,15,43,12.30
2010,10,15,15,44,12.30
2010,10,15,15,45,12.30
2010,10,15,15,46,12.20
2010,10,15,15,47,12.20
2010,10,15,15,48,12.20
2010,10,15,15,49,12.20
2010,10,15,15,50,12.30
2010,10,15,15,51,12.30
2010,10,15,15,52,12.30
2010,10,15,15,53,12.20
2010,10,15,15,54,12.20
2010,10,15,15,55,12.20
2010,10,15,15,56,12.10
2010,10,15,15,57,12.10
2010,10,15,15,58,12.10
2010,10,15,15,59,12.00
2010,10,15,16,00,12.00
2010,10,15,16,01,11.90
2010,10,15,16,02,11.90
2010,10,15,16,03,11.90
2010,10,15,16,04,12.00
2010,10,15,16,05,12.00
2010,10,15,16,06,12.00
2010,10,15,16,07,12.10
2010,10,15,16,08,12.10
2010,10,15,16,09,12.00
2010,10,15,16,10,12.00
2010,10,15,16,11,11.90
2010,10,15,16,12,11.90
2010,10,15,16,13,11.80
2010,10,15,16,14,11.80
2010,10,15,16,15,11.80
2010,10,15,16,16,11.70
2010,10,15,16,17,11.70
2010,10,15,16,18,11.70
2010,10,15,16,19,11.70
2010,10,15,16,20,11.80
2010,10,15,16,21,11.80
2010,10,15,16,22,11.80
2010,10,15,16,23,11.70
2010,10,15,16,24,11.70
2010,10,15,16,25,11.60
2010,10,15,16,26,11.60
2010,10,15,16,27,11.60
2010,10,15,16,28,11.60
2010,10,15,16,29,11.60
2010,10,15,16,30,11.60
2010,10,15,16,31,11.50
2010,10,15,16,32,11.50
2010,10,15,16,33,11.50
2010,10,15,16,34,11.50
2010,10,15,16,35,11.50
2010,10,15,16,36,11.60
2010,10,15,16,37,11.60
2010,10,15,16,38,11.60
2010,10,15,16,39,11.60
2010,10,15,16,40,11.60
2010,10,15,16,41,11.60
2010,10,15,16,42,11.60
2010,10,15,16,43,11.60
2010,10,15,16,44,11.60
2010,10,15,16,45,11.60
2010,10,15,16,46,11.60
2010,10,15,16,47,11.70
2010,10,15,16,48,11.70
2010,10,15,16,49,11.70
2010,10,15,16,50,11.80
2010,10,15,16,51,11.80
2010,10,15,16,52,11.80
2010,10,15,16,53,11.90
2010,10,15,16,54,11.80
2010,10,15,16,55,11.80
2010,10,15,16,56,11.80
2010,10,15,16,57,11.80
2010,10,15,16,58,11.70
2010,10,15,16,59,11.70
2010,10,15,17,00,11.70
2010,10,15,17,01,11.70
2010,10,15,17,02,11.70
2010,10,15,17,03,11.70
2010,10,15,17,04,11.80
2010,10,15,17,05,11.80
2010,10,15,17,06,11.70
2010,10,15,17,07,11.70
2010,10,15,17,08,11.70
2010,10,15,17,09,11.70
2010,10,15,17,10,11.70
2010,10,15,17,11,11.70
2010,10,15,17,12,11.70
2010,10,15,17,13,11.70
2010,10,15,17,14,11.70
2010,10,15,17,15,11.70
2010,10,15,17,16,11.60
2010,10,15,17,17,11.60
2010,10,15,17,18,11.50
2010,10,15,17,19,11.40
2010,10,15,17,20,11.40
2010,10,15,17,21,11.30
2010,10,15,17,22,11.30
2010,10,15,17,23,11.20
2010,10,15,17,24,11.20
2010,10,15,17,25,11.10
2010,10,15,17,26,11.10
2010,10,15,17,27,11.00
2010,10,15,17,28,10.90
2010,10,15,17,29,10.90
2010,10,15,17,30,10.80
2010,10,15,17,31,10.80
2010,10,15,17,32,10.80
2010,10,15,17,33,10.70
2010,10,15,17,34,10.70
2010,10,15,17,35,10.70
2010,10,15,17,36,10.70
2010,10,15,17,37,10.70
2010,10,15,17,38,10.70
2010,10,15,17,39,10.70
2010,10,15,17,40,10.60
2010,10,15,17,41,10.50
2010,10,15,17,42,10.50
2010,10,15,17,43,10.40
2010,10,15,17,44,10.30
2010,10,15,17,45,10.30
2010,10,15,17,46,10.20